Location: Champseau
(45.8333°N, 1.7667°E)
Time: 04:39:49
(UTC+00:00)

Cosmos 192 - Pass Details

Date: 18 April 2021
Orbit: 701 x 713 km, 74.0° (Epoch: 10 May)

Event Time Altitude Azimuth Distance (km) Brightness Sun altitude
Rises 20:43:17 0° 337° (NNW) 3,126 8.8 -19.0°
Reaches altitude 10° 20:45:38 10° 337° (NNW) 2,202 7.8 -19.3°
Maximum altitude 20:50:36 85° 252° (WSW) 722 4.3 -20.0°
Enters shadow 20:52:27 39° 165° (SSE) 1,055 4.8 -20.2°
